Dati Storici

Data ora Umidita' aria (%) Temperatura aria (°C) Rad globale (W/m²) Gonioanemometro (°) Tacoanemometro (m/s) Pioggia (mm)
04-06-2020 22:10 97.9 % 17.218 -62.037 1.937 0 0
04-06-2020 22:00 97.9 % 17.195 -69.923 1.4 0 0
04-06-2020 21:50 97.9 % 17.09 -63.912 1.138 0 0
04-06-2020 21:40 97.9 % 16.885 -50.066 3.976 0 0
04-06-2020 21:30 97.9 % 16.701 -20.522 3.849 0 0
04-06-2020 21:20 97.9 % 16.48 16.45 3.48 0 0
04-06-2020 21:10 97.9 % 16.311 -58.208 3.183 0 0
04-06-2020 21:00 97.9 % 16.159 -58.013 1.68 0 0
04-06-2020 20:50 97.9 % 16.073 -55.608 4.913 0 0
04-06-2020 20:40 97.9 % 16.03 -41.523 5.38 0 0
04-06-2020 20:30 97.9 % 16.242 -53.604 1.159 0 0
04-06-2020 20:20 97.9 % 16.266 -73.364 4.241 0 0
04-06-2020 20:10 97.9 % 16.252 -61.36 1.048 0 0
04-06-2020 20:00 97.9 % 16.094 -70.473 2.545 0 0
04-06-2020 19:50 97.9 % 16.043 -73.302 2.06 0 0
04-06-2020 19:40 97.9 % 16.193 -73.504 3.696 0 0
04-06-2020 19:30 97.9 % 15.817 -69.012 1.651 0 0
04-06-2020 19:20 97.9 % 15.71 -74.936 3.167 0 0
04-06-2020 19:10 97.9 % 15.635 -68.218 3.195 0 0
04-06-2020 19:00 97.9 % 15.989 -68.125 2.093 0 0

I dati sono presentati in modo automatico a scopo informativo. In seguito a verifica i dati possono subire modifiche o essere invalidati e non riportati negli archivi definitivi.